Regional Weather Roundup
Issued by NWS

Home | Current Version | Previous Version | Text Only | Print | Product List | Glossary On
Versions: 1 2 3 4 5 6 7 8 9 10 11 12 13 14 15 16 17 18 19 20 21 22 23 24 25 26 27 28 29 30 31 32 33 34 35 36 37 38 39 40 41 42 43 44 45 46 47 48 49 50
000
ASUS43 KLOT 261803
RWRIL

ILLINOIS REGIONAL WEATHER ROUNDUP
NATIONAL WEATHER SERVICE CHICAGO/ROMEOVILLE IL
100 PM CDT TUE JUL 26 2016

NOTE: "FAIR" INDICATES FEW OR NO CLOUDS BELOW 12,000 FEET WITH NO
SIGNIFICANT WEATHER AND/OR OBSTRUCTIONS TO VISIBILITY.

* THESE STATIONS ARE NOT UNDER NWS QUALITY CONTROL. THEY ALSO MAY NOT
  REPORT WEATHER SUCH AS PRECIPITATION OR FOG.

ILZ001-002-007-009-015-016-024-261900-
NORTHWEST ILLINOIS

CITY           SKY/WX    TMP DP  RH WIND       PRES   REMARKS
MOLINE         MOSUNNY   86  64  47 SE8       30.05F HX  87
6HR MIN TEMP:  68; 6HR MAX TEMP:  86;

STERLING*      MOSUNNY   84  67  56 SE6       30.06F HX  86
SAVANNA*       MOSUNNY   85  64  49 SE3       30.06F HX  86
$$

ILZ003-004-008-010-011-017-018-261900-
NORTH CENTRAL ILLINOIS

CITY           SKY/WX    TMP DP  RH WIND       PRES   REMARKS
ROCKFORD       MOSUNNY   85  63  47 W6        30.07F HX  86
6HR MIN TEMP:  69; 6HR MAX TEMP:  85;

FREEPORT*      MOSUNNY   83  62  50 CALM      30.09F HX  83
ROCHELLE*      PTSUNNY   83  66  56 CALM      30.07F HX  86
DE KALB*       MOSUNNY   83  64  52 NE3       30.07F HX  84
$$

ILZ005-006-012>014-019>023-261900-
NORTHEAST ILLINOIS

CITY           SKY/WX    TMP DP  RH WIND       PRES   REMARKS
CHICAGO-OHARE  PTSUNNY   84  61  45 NE5       30.04F HX  84
6HR MIN TEMP:  74; 6HR MAX TEMP:  86;

CHICAGO-MIDWAY PTSUNNY   85  63  47 VRB7      30.04F HX  86
6HR MIN TEMP:  76; 6HR MAX TEMP:  86;

AURORA         MOSUNNY   85  66  53 S6        30.05F HX  87
6HR MIN TEMP:  69; 6HR MAX TEMP:  86;

LANSING*       CLOUDY    82  62  50 E3        30.05F HX  83
WAUKEGAN       SUNNY     82  63  52 SE7       30.05F HX  83
6HR MIN TEMP:  72; 6HR MAX TEMP:  83;

DUPAGE AIRPORT MOSUNNY   86  61  42 SW5       30.05F HX  86
6HR MIN TEMP:  71; 6HR MAX TEMP:  86;

KANKAKEE*      MOSUNNY   83  67  56 SE3       30.07S HX  86
WHEELING       MOSUNNY   85  61  44 VRB3      30.06F HX  85
6HR MIN TEMP:  73; 6HR MAX TEMP:  86;

MORRIS*        MOSUNNY   83  69  62 CALM      30.04F HX  87
NORTHERLY ISL    N/A     79  67  66 E5          N/A  HX  81
$$

LMZ740>746-261900-
SOUTHERN LAKE MICHIGAN

STATION/POSITION SKY/WX   TEMP    WIND        PRES    VSBY  WAVE
                          AIR SEA DIR/SP/G                  HT/PER
                          (F)     (DEG/KT/KT) (MB)    (MI)  (FT/S)
SOUTHERN BUOY              77 77   CALM  /  2 1017.6          0
WILMETTE HARBOR            73 71   40/  4/  4   N/A           0
HARRISON CRIB              78      90/  5/  5   N/A
BURNHAM HARBOR             80      70/  5/  6   N/A
CALUMET HARBOR             77      40/  6/  8 1017.5F
BURNS HARBOR               77      30/  6/  7 1018.3F
MICHIGAN CITY              76     360/  9/  9   N/A
MICHIGAN CITY 6N           76 76   20/  6/  8   N/A           0
ST. JOSEPH                 76 78  310/  6/  6 1017.8F         0
$$

ILZ025>027-034>036-040-047-049-050-058-095>099-261900-
WEST-CENTRAL ILLINOIS

CITY           SKY/WX    TMP DP  RH WIND       PRES   REMARKS
QUINCY         PTSUNNY   85  66  53 VRB7      30.04F HX  87
GALESBURG*     CLOUDY    81  65  57 CALM      30.06F HX  83
MACOMB*        MOSUNNY   83  67  59 NE3       30.07F HX  86
JACKSONVILLE*  MOSUNNY   84  67  56 E3        30.04F HX  87
PITTSFIELD*    MOSUNNY   85  71  64 CALM      30.05F HX  90
$$

ILZ028>032-037-038-041>044-048-051>054-059>061-261900-
CENTRAL ILLINOIS

CITY           SKY/WX    TMP DP  RH WIND       PRES   REMARKS
PONTIAC        PTSUNNY   84  73  69 SE5       30.05F HX  91
BLOOMINGTON    MOSUNNY   82  69  64 E7        30.06F HX  85
DECATUR        CLOUDY    83  69  62 E13       30.05S HX  86
PEORIA         PTSUNNY   84  68  58 NE6       30.04F HX  87
6HR MIN TEMP:  71; 6HR MAX TEMP:  87;

LACON*         MOSUNNY   83  65  56 CALM      30.04F HX  84
LINCOLN*       SUNNY     85  69  58 E5        30.04S HX  89
SPRINGFIELD    MOSUNNY   87  67  51 E9        30.04F HX  90
6HR MIN TEMP:  74; 6HR MAX TEMP:  88;

TAYLORVILLE    MOSUNNY   84  72  67 MISG      30.03F HX  90
6HR MIN TEMP:  72; 6HR MAX TEMP:  84;

$$

ILZ033-039-045-046-055>057-062-063-261900-
EAST-CENTRAL ILLINOIS

CITY           SKY/WX    TMP DP  RH WIND       PRES   REMARKS
CHAMPAIGN      CLOUDY    80  68  66 SE7       30.06F HX  83
MATTOON        CLOUDY    78  67  68 SE8       30.04F HX  80
PARIS*         CLOUDY    76  69  77 CALM      30.06F
$$

ILZ079-100>102-261900-
SOUTHWEST ILLINOIS

CITY           SKY/WX    TMP DP  RH WIND       PRES   REMARKS
ALTON          PTSUNNY   84  73  70 VRB5      30.02F HX  91
BELLEVILLE     MOSUNNY   87  78  72 E6        30.00F HX 100
CAHOKIA*       PTSUNNY   88  74  63 SE3       30.00F HX  96
SPARTA*        MOSUNNY   86  76  71 NE5       30.02F HX  96
$$

ILZ064>066-069>071-074>076-080>082-084>086-088>090-092>094-261900-
SOUTH-CENTRAL ILLINOIS

CITY           SKY/WX    TMP DP  RH WIND       PRES   REMARKS
CARBONDALE     CLOUDY    84  76  76 NW12      30.01S HX  93
6HR MIN TEMP:  77; 6HR MAX TEMP:  88;

CAIRO*         SUNNY     88  79  75 SW5       30.00F HX 102
EFFINGHAM*     CLOUDY    78  75  89 NE6       30.05F HX  82
MARION         PTSUNNY   86  77  74 N6        30.01F HX  97
MT. VERNON     MOSUNNY   86  73  66 MISG      30.00F HX  93
CENTRALIA*     MOSUNNY   86  78  77 NW3       30.01F HX  98
SALEM*         PTSUNNY   85  73  68 CALM      30.02F HX  91
METROPOLIS*    SUNNY     90  74  60 CALM      30.01S HX  99
$$

ILZ067-068-072-073-078-083-087-091-261900-
SOUTHEAST ILLINOIS

CITY           SKY/WX    TMP DP  RH WIND       PRES   REMARKS
LAWRENCEVILLE  CLOUDY    85  75  72 N7        30.02F HX  93
FLORA*         PTSUNNY   83  75  75 N5        30.03S HX  90
FAIRFIELD*     MOSUNNY   85  77  76 CALM      30.01S HX  95
HARRISBURG*    MOSUNNY   86  77  73 W5        30.01F HX  96
ROBINSON*      CLOUDY    77  71  82 CALM      30.05S
CARMI*         MOSUNNY   85  78  78 N3        30.01F HX  96
$$

ABBREVIATIONS USED IN REMARKS
   TC - TEMPERATURE IN CELSIUS
  WCI - WIND CHILL INDEX
   HX - HEAT INDEX
  VSB - VISIBILITY
$$





USA.gov is the U.S. government's official web portal to all federal, state and local government web resources and services.